Weather History for Hamilton, OH

Change the Weather History Date:

Friday, June 14, 2013

  Actual Average (KCVG) Record (KCVG)
Temperature  
Mean Temperature 68 °F 72 °F  
Max Temperature 80 °F 82 °F 95 °F (1976)
Min Temperature 55 °F 62 °F 46 °F (1978)
Degree Days  
Heating Degree Days 0 0  
Month to date heating degree days 12  
Since 1 June heating degree days 12  
Since 1 July heating degree days 4972  
Cooling Degree Days 2 7  
Month to date cooling degree days 83  
Year to date cooling degree days 177  
Since 1 June cooling degree days 83  
Growing Degree Days 18 (Base 50)    
Moisture  
Dew Point 57 °F    
Average Humidity 68    
Maximum Humidity 96    
Minimum Humidity 45    
Precipitation  
Precipitation 0.00 in 0.14 in 2.62 in (1880)
Month to date precipitation 2.05  
Year to date precipitation 20.64  
Snow  
Snow 0.00 in 0.00 in 0.00 in ()
Month to date snowfall 0.0  
Since 1 June snowfall 0.0  
Since 1 July snowfall 22.1  
Snow Depth -    
Sea Level Pressure  
Sea Level Pressure 30.02 in    
Wind  
Wind Speed 4 mph (North)    
Max Wind Speed 12 mph    
Max Gust Speed -    
Visibility 10 miles    
Events      
T = Trace of Precipitation, MM = Missing Value Source: NWS Daily Summary

Daily Weather History Graph

Daily Weather History Graph

Search for Another Location

Airport:

Trip Planner

Search our weather history database for the weather conditions in past years. The results will help you decide how hot, cold, wet, or windy it might be!

Date:

Astronomy

Jun. 14, 2013 Rise Set
Actual Time 6:10 AM EDT 9:06 PM EDT
Civil Twilight 5:38 AM EDT 9:38 PM EDT
Nautical Twilight 4:57 AM EDT 10:19 PM EDT
Astronomical Twilight 4:10 AM EDT 11:06 PM EDT
Moon 11:43 AM EDT (6/14) 12:13 AM EDT (6/14)
Length of Visible Light 16h 00m
Length of Day
14h 55m
Waxing Crescent, 30% of the Moon is Illuminated
Jun 14
Waxing Crescent
Jun 16
First Quarter
Jun 23
Full
Jun 30
Last Quarter
Jul 8
New

Hourly Weather History & Observations

Time (EDT) Temp. Heat Index Dew Point Humidity Pressure Visibility Wind Dir Wind Speed Gust Speed Precip Events Conditions
12:53 AM 64.0 °F - 53.1 °F 67% 29.95 in 10.0 mi NW 6.9 mph - N/A   Clear
1:53 AM 62.1 °F - 53.1 °F 72% 29.95 in 10.0 mi WNW 6.9 mph - N/A   Clear
2:53 AM 59.0 °F - 53.1 °F 81% 29.94 in 10.0 mi Calm Calm - N/A   Clear
3:53 AM 57.0 °F - 54.0 °F 89% 29.94 in 10.0 mi Calm Calm - N/A   Clear
4:53 AM 55.0 °F - 53.1 °F 93% 29.95 in 10.0 mi Calm Calm - N/A   Clear
5:53 AM 55.0 °F - 54.0 °F 96% 29.97 in 10.0 mi Calm Calm - N/A   Clear
6:53 AM 57.0 °F - 55.0 °F 93% 29.99 in 10.0 mi Calm Calm - N/A   Clear
7:53 AM 62.1 °F - 55.9 °F 80% 30.01 in 10.0 mi NW 3.5 mph - N/A   Clear
8:53 AM 66.0 °F - 57.9 °F 75% 30.05 in 10.0 mi NNW 4.6 mph - N/A   Clear
9:53 AM 70.0 °F - 57.9 °F 65% 30.04 in 10.0 mi North 5.8 mph - N/A   Clear
10:53 AM 73.0 °F - 59.0 °F 61% 30.06 in 10.0 mi Calm Calm - N/A   Clear
11:53 AM 75.0 °F - 59.0 °F 57% 30.07 in 10.0 mi NNW 9.2 mph - N/A   Clear
12:53 PM 75.9 °F - 60.1 °F 58% 30.06 in 10.0 mi Variable 4.6 mph - N/A   Clear
1:53 PM 78.1 °F - 60.1 °F 54% 30.05 in 10.0 mi NNW 11.5 mph - N/A   Clear
2:53 PM 78.1 °F - 59.0 °F 52% 30.04 in 10.0 mi NNE 6.9 mph - N/A   Scattered Clouds
3:53 PM 80.1 °F 80.4 °F 57.0 °F 45% 30.04 in 10.0 mi North 9.2 mph - N/A   Partly Cloudy
4:53 PM 78.1 °F - 57.0 °F 48% 30.04 in 10.0 mi North 6.9 mph - N/A   Clear
5:53 PM 79.0 °F - 55.9 °F 45% 30.04 in 10.0 mi North 4.6 mph - N/A   Partly Cloudy
6:53 PM 79.0 °F - 55.9 °F 45% 30.03 in 10.0 mi North 5.8 mph - N/A   Clear
7:53 PM 77.0 °F - 57.0 °F 50% 30.03 in 10.0 mi NNE 4.6 mph - N/A   Clear
8:53 PM 69.1 °F - 59.0 °F 70% 30.04 in 10.0 mi North 4.6 mph - N/A   Clear
9:53 PM 66.0 °F - 57.9 °F 75% 30.04 in 10.0 mi NNE 4.6 mph - N/A   Clear
10:53 PM 66.0 °F - 55.9 °F 70% 30.06 in 10.0 mi NE 4.6 mph - N/A   Clear
11:53 PM 61.0 °F - 57.0 °F 87% 30.06 in 10.0 mi SSE 3.5 mph - N/A   Clear